Location: Baix
(44.7118°N, 4.7648°E)
Time: 03:24:22
(UTC+00:00)

Cosmos 1777 Rocket - Pass Details

Date: 07 August 2020
Orbit: 758 x 775 km, 74.0° (Epoch: 27 September)

Event Time Altitude Azimuth Distance (km) Brightness Sun altitude
Exits shadow 00:48:48 54° 99° (E) 934 4.4 -27.3°
Drops below altitude 10° 00:53:48 10° 29° (NNE) 2,330 7.5 -27.1°
Sets 00:56:14 0° 26° (NNE) 3,263 8.5 -26.9°
